World > North America > United States > Missouri > Versailles

Versailles, MO Hourly Weather Conditions

Feedback E-mail the Weather

Quick WX

Versailles, MO Weather Maps

°F °C°F °C
Versailles Weather Map
UTC Time: 2/9/2023, 13:08
Your Time:

Versailles, MO Regional Weather

Expires:202302091400;;064517
ASUS43 KLSX 091307
RWRMO 

WEATHER SUMMARY FOR MISSOURI
NATIONAL WEATHER SERVICE SPRINGFIELD MO
700 AM CST THU FEB 09 2023

NOTE: "FAIR" INDICATES FEW OR NO CLOUDS BELOW 12,000 FEET WITH NO
       SIGNIFICANT WEATHER AND/OR OBSTRUCTIONS TO VISIBILITY.
       CURRENT SKY AND/OR WEATHER CONDITIONS ARE NOT AVAILABLE FOR
       CHILLICOTHE AND FARMINGTON.


MOZ032>034-039>042-045>050-055>058-069>072-091400-
...CENTRAL MISSOURI...  
  
CITY           SKY/WX    TMP DP  RH WIND       PRES   REMARKS
COLUMBIA       CLOUDY    36  33  89 W24G32    29.64R WCI  24          
JEFFERSON CITY CLOUDY    39  34  82 W17G28    29.67R WCI  30          
ROLLA          CLOUDY    38  34  85 SW22G36   29.68R WCI  27          
SEDALIA        LGT SNOW  34  31  88 W20G33    29.74R FOG     WCI  23  
WARRENSBURG    LGT SNOW  32  32 100 W16G22    29.80R WCI  21          
OSAGE BEACH    MIX PCPN  36  33  89 W15         N/A  WCI  27          
               
$$

SKY/WX - Weather  TMP - Temperature  DP - Dew Point  RH - Humidity
WIND - Wind Direction/Speed PRES - Barometric Pressure VSB - Visibility
WCI - Wind Chill Index E13G22 Wind - East Wind 13 mph/Gusts of 22 mph

Trending Headlines

Trending Entertainment Headlines

Versailles Radar Loop

Use the map search tool if you want to place a location marker on the radar map...

Versailles Quick Facts

National Two Day Weather Forecast


E-mail the Versailles Weather Forecast

Voice your opinion or tell us about page issues...